Regional Weather Roundup
Issued by NWS

Home | Current Version | Previous Version | Text Only | Print | Product List | Glossary Off
Versions: 1 2 3 4 5 6 7 8 9 10 11 12 13 14 15 16 17 18 19 20 21 22 23 24 25 26 27 28 29 30 31 32 33 34 35 36 37 38 39 40 41 42 43 44 45 46 47 48 49 50

000
ASUS43 KDMX 292008
RWRIA

WEATHER ROUNDUP FOR IOWA
NATIONAL WEATHER SERVICE DES MOINES IA
300 PM CDT SUN MAY 29 2016

NOTE: "FAIR" INDICATES FEW OR NO CLOUDS BELOW 12,000 FEET WITH NO
SIGNIFICANT WEATHER AND/OR OBSTRUCTIONS TO VISIBILITY.

* - THESE STATIONS ARE NOT NWS STATIONS...THUS NOT UNDER NWS
QUALITY CONTROL.  THEY ALSO DO NOT REPORT WEATHER SUCH
AS PRECIPITATION OR FOG.

IAZ001>003-012>014-020>022-031>034-043>046-292100-
   NORTHWEST IOWA

CITY           SKY/WX    TMP DP  RH WIND       PRES   REMARKS
CARROLL *      SUNNY     82  54  36 W12G18    30.05S HX  81
CHEROKEE *     MOSUNNY   79  59  50 W10G17    30.04F HX  80
DENISON *      SUNNY     81  54  39 W14       30.03F HX  80
LE MARS *      MOSUNNY   79  59  50 W9        30.05F HX  80
ORANGE CITY *  MOSUNNY   75  63  64 NW10      30.05F
SHELDON *      SUNNY     77  59  53 W13       30.03F
SIOUX CITY     SUNNY     81  60  48 NW10      30.04F HX  82
SPENCER        MOSUNNY   78  60  53 W15       30.04S
STORM LAKE *   MOSUNNY   79  55  44 W13G22    30.05F
$$

IAZ055>058-069>071-079>083-090>094-292100-
   SOUTHWEST IOWA

CITY           SKY/WX    TMP DP  RH WIND       PRES   REMARKS
ATLANTIC *     SUNNY     81  55  41 VRB7      30.06S HX  80
AUDUBON *        N/A     81  55  41 SW8       30.07F HX  80
CLARINDA *       N/A     82  63  51 MISG      30.07F HX  83
COUNCIL BLFS * SUNNY     81  59  47 NW3       30.06F HX  81
CRESTON *      MOSUNNY   79  57  47 VRB6G12   30.08F HX  80
HARLAN  *      SUNNY     81  54  39 W5G16     30.09F HX  80
LAMONI         MOSUNNY   80  62  54 W5        30.07F HX  81
RED OAK *      SUNNY     82  59  44 VRB5      30.06F HX  82
SHENANDOAH *   MOSUNNY   84  63  48 VRB6G13   30.06F HX  85
$$

IAZ047>049-059>061-072>074-084-292100-
   CENTRAL IOWA

CITY           SKY/WX    TMP DP  RH WIND       PRES   REMARKS
AMES           MOSUNNY   80  58  46 W13G18    30.04F HX  80
ANKENY *       SUNNY     81  59  47 NW7G16    30.04F HX  81
BOONE *        MOSUNNY   81  57  44 W9G17     30.04F HX  81
CHARITON *     SUNNY     81  57  44 W9        30.07F HX  81
DES MOINES     MOSUNNY   82  53  36 W9        30.05F HX  81
KNOXVILLE *    SUNNY     79  54  41 NW9G15    30.04F
MARSHALLTOWN   SUNNY     77  60  55 W10       30.04F
NEWTON *       SUNNY     79  59  50 W12G21    30.05F HX  80
PELLA *        SUNNY     81  57  44 W6        30.06F HX  81
PERRY *          N/A     81  57  44 W12       30.05F HX  81
$$

IAZ004>006-015-016-023>025-035-036-292100-
   NORTH CENTRAL IOWA

CITY           SKY/WX    TMP DP  RH WIND       PRES   REMARKS
ALGONA *       MOSUNNY   79  59  50 W15G24    30.03F HX  80
CLARION *      PTSUNNY   77  63  61 NW15G23   30.03F
ESTHERVILLE    PTSUNNY   71  59  65 W20       30.04R
FORT DODGE *   MOSUNNY   79  57  47 W14       30.04F HX  80
MASON CITY     PTSUNNY   73  60  63 W22       30.04R
FOREST CITY *  DRIZZLE   64  54  68 W5        30.04R
WEBSTER CITY * PTSUNNY   79  57  47 SW8G18    30.02F HX  80
$$

IAZ007>011-017>019-026>030-037>042-050>054-066-292100-
   NORTHEAST IOWA

CITY           SKY/WX    TMP DP  RH WIND       PRES   REMARKS
CEDAR RAPIDS   MOSUNNY   78  60  53 W14       30.03F
CHARLES CITY * PTSUNNY   77  57  50 W17G28    30.02S
CLINTON *      PTSUNNY   78  60  53 W15G23    30.03F
DECORAH *      PTSUNNY   75  59  57 W12G18    29.99F
DUBUQUE        MOSUNNY   76  58  53 W12G20    30.03F
OELWEIN *      MOSUNNY   77  59  53 W15G28    30.02F
WATERLOO       PTSUNNY   80  57  45 W20       30.01F HX  80
$$

IAZ064-065-067-068-078-292100-
   EAST CENTRAL IOWA

CITY           SKY/WX    TMP DP  RH WIND       PRES   REMARKS
DAVENPORT      MOSUNNY   79  57  46 W12G20    30.04F HX  80
IOWA CITY      MOSUNNY   80  58  46 W9G20     30.05F HX  80
MT. PLEASANT * SUNNY     82  59  44 W6G17     30.06F HX  82
MUSCATINE *    MOSUNNY   81  57  44 W14       30.05S HX  81
QUAD CITIES    MOSUNNY   82  58  43 W13       30.03F HX  82
$$

IAZ062-063-075>077-085>089-095>099-292100-
   SOUTHEAST IOWA

CITY           SKY/WX    TMP DP  RH WIND       PRES   REMARKS
BURLINGTON     SUNNY     80  59  48 NW7G17    30.06F HX  81
FAIRFIELD *      N/A    N/A N/A N/A MISG        N/A
FORT MADISON * SUNNY     81  57  44 NW9       30.07F HX  81
KEOKUK *       SUNNY     82  55  39 W9G17     30.06F HX  82
OSKALOOSA *      N/A     82  52  34 NW14G20   30.06F HX  81
OTTUMWA        SUNNY     80  57  45 NW7       30.06F HX  80
WASHINGTON *   MOSUNNY   81 -31   1 W13G18    30.07S
$$

ABBREVIATIONS USED IN REMARKS
   TC - TEMPERATURES IN CELSIUS
  WCI - WIND CHILL INDEX
   HX - HEAT INDEX
  VSB - VISIBILITY
$$




USA.gov is the U.S. government's official web portal to all federal, state and local government web resources and services.